This demonstration page uses our WeatherBlox Daily Observations layout. Learn more.

Left ArrowRight Arrow

53.62937, 11.41316

Hourly Observations for August 16, 2021

Temp ( °F °C ) Dew Point ( °F °C ) Humidity (%) Winds ( mph kmh ) Pressure ( in mb ) Visibility ( mi km ) Precip ( " mm )
6:20 am 06:20 Mostly Sunny 59 15 59 15 100 100 SSE 5 7 29.65 1004 30 48 N/A
6:50 am 06:50 Partly Cloudy with Rain 61 16 59 15 94 94 SE 3 6 29.65 1004 6 9 N/A
7:20 am 07:20 Mostly Cloudy with Light Showers 59 15 59 15 100 100 SSW 7 11 29.65 1004 30 48 N/A
7:50 am 07:50 Mostly Cloudy 61 16 61 16 100 100 S 9 15 29.65 1004 30 48 N/A
8:20 am 08:20 Mostly Cloudy 61 16 61 16 100 100 S 8 13 29.65 1004 30 48 N/A
8:50 am 08:50 Mostly Cloudy 63 17 61 16 94 94 S 8 13 29.65 1004 30 48 N/A
9:20 am 09:20 Mostly Cloudy 63 17 59 15 88 88 SSW 10 17 29.65 1004 30 48 N/A
9:50 am 09:50 Partly Cloudy 63 17 59 15 88 88 SSW 9 15 29.65 1004 30 48 N/A
10:20 am 10:20 Mostly Cloudy 63 17 61 16 94 94 SSW 9 15 29.65 1004 30 48 N/A
10:50 am 10:50 Mostly Cloudy 64 18 59 15 83 83 SSW 12 19 29.65 1004 30 48 N/A
11:20 am 11:20 Mostly Cloudy 63 17 59 15 88 88 SW 13 20 29.65 1004 30 48 N/A
11:50 am 11:50 Mostly Cloudy with Light Rain 61 16 59 15 94 94 SW 10 17 29.65 1004 4 6 N/A
12:20 pm 12:20 Mostly Cloudy with Heavy Rain 61 16 59 15 94 94 SW 7 11 29.65 1004 2 3 N/A
12:50 pm 12:50 Mostly Cloudy with Light Rain 61 16 59 15 94 94 SSW 10 17 29.65 1004 4 6 N/A
1:20 pm 13:20 Mostly Cloudy with Light Rain 61 16 61 16 100 100 SSW 15 24 29.65 1004 6 9 N/A
1:50 pm 13:50 Mostly Cloudy with Light Rain 61 16 59 15 94 94 SW 9 15 29.65 1004 6 9 N/A
2:20 pm 14:20 Mostly Cloudy with Light Rain 61 16 59 15 94 94 SW 12 19 29.65 1004 30 48 N/A
2:50 pm 14:50 Mostly Cloudy with Light Rain 59 15 59 15 100 100 SSW 12 19 29.65 1004 30 48 N/A
3:20 pm 15:20 Mostly Cloudy with Light Rain 61 16 57 14 88 88 SSW 13 20 29.65 1004 30 48 N/A
3:50 pm 15:50 Mostly Cloudy with Light Rain 59 15 57 14 94 94 SW 16 26 29.68 1005 30 48 N/A
4:20 pm 16:20 Partly Cloudy with Light Rain 59 15 55 13 88 88 SW 10 17 29.68 1005 30 48 N/A
4:50 pm 16:50 Mostly Sunny 59 15 55 13 88 88 SSW 10 17 29.68 1005 30 48 N/A
5:20 pm 17:20 Mostly Sunny 59 15 55 13 88 88 SSW 10 17 29.68 1005 30 48 N/A
5:50 pm 17:50 Mostly Sunny 59 15 55 13 88 88 S 12 19 29.68 1005 30 48 N/A
6:20 pm 18:20 Mostly Sunny 61 16 57 14 88 88 SSW 12 19 29.68 1005 30 48 N/A
6:50 pm 18:50 Mostly Sunny 61 16 48 9 63 63 SW 14 22 29.68 1005 30 48 N/A
7:20 pm 19:20 Mostly Sunny 59 15 46 8 63 63 SW 13 20 29.68 1005 30 48 N/A
7:50 pm 19:50 Mostly Sunny 57 14 46 8 67 67 SSW 17 28 29.71 1006 7 11 N/A
8:20 pm 20:20 Mostly Sunny 57 14 46 8 67 67 SW 12 19 29.71 1006 7 11 N/A
8:50 pm 20:50 Mostly Clear 55 13 48 9 77 77 SSW 10 17 29.71 1006 30 48 N/A
9:20 pm 21:20 Mostly Clear 55 13 46 8 72 72 S 13 20 29.68 1005 30 48 N/A
9:50 pm 21:50 Mostly Clear 55 13 46 8 72 72 S 9 15 29.68 1005 30 48 N/A

Powered by AerisWeather